This demonstration page uses our WeatherBlox Daily Observations layout. Learn more.

Left ArrowRight Arrow

Hourly Observations for June 3, 2017

Temp ( °F °C ) Dew Point ( °F °C ) Humidity (%) Winds ( mph kmh ) Pressure ( in mb ) Visibility ( mi km ) Precip ( " mm )
12:51 am 00:51 Clear 72 22.2 47 8.3 41 41 VRB 3 6 29.75 1008 10 16 N/A
1:51 am 01:51 Clear 68 20 43 6.1 40 40 NE 5 7 29.76 1008 10 16 N/A
2:51 am 02:51 Clear 67 19.4 43 6.1 42 42 ENE 3 6 29.76 1008 10 16 N/A
3:51 am 03:51 Clear 65 18.3 44 6.7 47 47 E 6 9 29.77 1008 10 16 N/A
4:51 am 04:51 Clear 68 20 44 6.7 42 42 E 6 9 29.79 1009 10 16 N/A
5:51 am 05:51 Sunny 68 20 44 6.7 42 42 E 5 7 29.81 1010 10 16 N/A
6:51 am 06:51 Sunny 75 23.9 45 7.2 34 34 N N/A 29.82 1010 10 16 N/A
7:51 am 07:51 Sunny 77 25 45 7.2 32 32 W 5 7 29.82 1010 10 16 N/A
8:51 am 08:51 Sunny 84 28.9 45 7.2 25 25 ENE 3 6 29.81 1009 10 16 N/A
9:51 am 09:51 Sunny 86 30 44 6.7 23 23 S 8 13 29.80 1009 10 16 N/A
10:51 am 10:51 Mostly Sunny 89 31.7 43 6.1 20 20 WSW 7 11 29.79 1009 10 16 N/A
11:51 am 11:51 Sunny 93 33.9 41 5 16 16 VRB 5 7 29.76 1008 10 16 N/A
12:51 pm 12:51 Sunny 97 36.1 33 0.6 10 10 N N/A 29.72 1007 10 16 N/A
1:51 pm 13:51 Sunny 97 36.1 34 1.1 11 11 SSW 8 13 29.70 1006 10 16 N/A
2:51 pm 14:51 Mostly Sunny 100 37.8 33 0.6 10 10 WNW 10 17 29.67 1005 10 16 N/A
3:51 pm 15:51 Mostly Sunny 100 37.8 34 1.1 10 10 WNW 13 20 29.66 1004 10 16 N/A
4:51 pm 16:51 Sunny 98 36.7 32 undefined 10 10 VRB 3 6 29.65 1004 10 16 N/A
5:51 pm 17:51 Mostly Sunny 97 36.1 32 undefined 10 10 N 7 11 29.65 1004 10 16 N/A
6:51 pm 18:51 Sunny 97 36.1 32 undefined 10 10 S 6 9 29.65 1004 10 16 N/A
7:51 pm 19:51 Mostly Clear 92 33.3 31 -0.6 11 11 SSE 3 6 29.66 1004 10 16 N/A
8:51 pm 20:51 Clear 83 28.3 29 -1.7 14 14 N N/A 29.67 1005 10 16 N/A
9:51 pm 21:51 Clear 83 28.3 30 -1.1 15 15 ESE 6 9 29.70 1006 10 16 N/A
10:51 pm 22:51 Clear 83 28.3 31 -0.6 15 15 N N/A 29.71 1006 10 16 N/A
11:51 pm 23:51 Clear 76 24.4 30 -1.1 18 18 E 6 9 29.72 1007 10 16 N/A

Powered by AerisWeather